Regional Weather Roundup
Issued by NWS Albany, NY

Home | Current Version | Previous Version | Text Only | Print | Product List | Glossary On
Versions: 1 2 3 4 5 6 7 8 9 10 11 12 13 14 15 16 17 18 19 20 21 22 23 24 25 26 27 28
000
ASUS41 KALY 202010
RWRALY

NEW YORK STATE HOURLY WEATHER ROUNDUP
NATIONAL WEATHER SERVICE ALBANY NY
300 PM EST SAT JAN 20 2018

NOTE: "FAIR" INDICATES FEW OR NO CLOUDS BELOW 12,000 FEET WITH NO
SIGNIFICANT WEATHER AND/OR NO OBSTRUCTIONS TO VISIBILITY.

NYZ032-033-038>043-046>054-057>066-NYZ062>081-082-084-202100-
EAST


CITY           SKY/WX    TMP DP  RH WIND       PRES   REMARKS
ALBANY         FAIR      46  26  45 W14G22    29.83R
GLENS FALLS    FAIR      46  28  49 W10       29.78R
POUGHKEEPSIE   FAIR      46  25  43 SW14      29.83R
NEWBURGH       PTSUNNY   45  30  57 W14       29.84R
MONTGOMERY     FAIR      45  26  47 W15       29.83R
WHITE PLAINS   FAIR      47  25  42 W10       29.84R
ISLIP          FAIR      54  25  32 W17       29.84R
NEW YORK CITY  PTSUNNY   52  25  35 W21G29    29.86R
CENTRAL PARK   FAIR      50  25  37 SW10G20   29.89R
$$

NYZ005>009-017-018-044>046-055-056-202100-
CENTRAL


CITY           SKY/WX    TMP DP  RH WIND       PRES   REMARKS
FULTON         FAIR      42  28  57 W12       29.86R
SYRACUSE       PTSUNNY   42  29  59 W13       29.87R
ROME           PTSUNNY   42  28  57 W14       29.87R
ELMIRA         FAIR      46  28  49 W10       29.88R
BINGHAMTON     FAIR      41  25  53 W10       29.84R
MONTICELLO     FAIR      42  26  53 W10G16    29.84R
$$

NYZ026>034-041>043-087-202100-
NORTH


CITY           SKY/WX    TMP DP  RH WIND       PRES   REMARKS
WATERTOWN      FAIR      38  31  76 SW17G25   29.84R WCI  28
FORT DRUM      NOT AVBL
OGDENSBURG     FAIR      40  32  73 SW15G24   29.77R WCI  32
MASSENA        PTSUNNY   40  31  70 SW22G30   29.76R WCI  30
SARANAC LAKE   CLOUDY    34  28  79 W10G20    29.72R WCI  26
PLATTSBURGH    CLOUDY    42  28  57 W9        29.72R
$$

NYZ001>004-010>016-019>021-085-202100-
WEST


CITY           SKY/WX    TMP DP  RH WIND       PRES   REMARKS
NIAGARA FALLS  FAIR      39  28  64 SW20      29.89S WCI  29
BUFFALO        FAIR      37  28  70 SW24G35   29.90R WCI  26
DUNKIRK        FAIR      48  28  46 SW20G30   29.94S
JAMESTOWN      FAIR      38  26  62 W13       29.91R WCI  30
WELLSVILLE     FAIR      43  27  53 W17G25    29.89R
ROCHESTER      PTSUNNY   41  28  60 W22G35    29.89R
PENN YAN       FAIR      44  25  47 W12       29.87R
$$

             KEY
       WCI = WIND CHILL INDEX
       VSB = VISIBILITY
       HX  = HEAT INDEX
$$




USA.gov is the U.S. government's official web portal to all federal, state and local government web resources and services.